Temperature
-0 0 0 0 1 0 0 0 0 1 1 1 1 0 1 1 1 1 1 1 1 1 0 0 0 0 0 0 0 0 -0 -0 -0 0 0 0 0 0 1 1 1 1 1 1
-1 -0 -0 0 0 0 0 -0 -0 -0 -0 0 1 1 0 0 0 0 0 0 0 -0 -0 -0 -1 -1 -0 -0 -0 -1 -1 -0 -0 -0 -0 -0 -0 -0 -0 -0 0 -0 0 0
-1 -1 -0 -0 -1 -0 -0 -1 -1 -0 0 -0 -1 -1 -0 0 0 -0 0 -0 -0 -1 -1 -1 -1 -1 -1 -1 -1 -1 -1 -1 -1 -1 -1 -1 -1 -1 -1 -1 -1 -1 -1 -1
-2 -1 -1 1 -1 -1 -1 -1 -1 -1 -1 -1 -1 -0 0 0 0 -0 -0 -1 -1 -1 -1 -1 -1 -1 -1 -2 -2 -2 -2 -2 -2 -2 -2 -1 -1 -1 -1 -1 -1 -1 -1 -1
-3 -2 -1 -0 -1 -1 -1 -1 -2 -2 -2 -1 -1 -1 -1 0 -0 -0 -1 -1 -1 -1 -1 -1 -2 -2 -2 -2 -2 -2 -2 -2 -2 -2 -2 -2 -2 -2 -2 -2 -2 -2 -2 -2
-3 -2 -1 0 -1 -1 -1 -1 -1 -2 -2 -2 -2 -2 -2 -0 -1 -1 -1 -1 -1 -2 -2 -2 -2 -2 -2 -2 -2 -2 -3 -3 -2 -2 -2 -2 -2 -2 -2 -2 -2 -2 -2 -2
-3 -2 -2 -1 -2 -1 -1 -0 -1 -1 -2 -2 -3 -2 -1 -1 -1 -1 -1 -2 -2 -2 -2 -2 -3 -3 -3 -3 -3 -3 -3 -3 -3 -3 -3 -2 -3 -3 -3 -3 -3 -3 -3 -3
-3 -2 -1 -2 -2 -2 -1 -1 -1 -1 -1 -2 -2 -2 -2 -2 -2 -2 -2 -2 -2 -3 -3 -3 -3 -3 -3 -3 -3 -3 -3 -3 -3 -3 -3 -3 -3 -3 -3 -3 -3 -3 -3 -3
-3 -2 -2 -2 -1 -1 -1 -1 -1 -2 -2 -2 -2 -2 -2 -2 -2 -2 -3 -3 -3 -3 -3 -3 -3 -4 -4 -4 -4 -4 -4 -4 -4 -4 -4 -4 -4 -4 -4 -4 -4 -4 -4 -4
-4 -4 -3 -2 -2 -1 -1 -2 -2 -2 -2 -2 -2 -3 -3 -3 -3 -3 -3 -3 -3 -4 -4 -4 -4 -4 -4 -4 -4 -4 -4 -4 -4 -4 -4 -4 -4 -4 -4 -4 -4 -4 -4 -4
-5 -4 -3 -2 -2 -2 -2 -2 -2 -2 -2 -2 -3 -3 -3 -3 -3 -4 -4 -4 -4 -4 -4 -4 -4 -4 -4 -4 -4 -4 -4 -4 -5 -5 -5 -5 -5 -5 -5 -5 -5 -5 -5 -5
-3 -3 -4 -3 -2 -2 -2 -2 -2 -2 -3 -3 -3 -3 -3 -4 -4 -4 -4 -4 -4 -4 -5 -4 -4 -4 -4 -5 -5 -5 -5 -5 -5 -5 -5 -5 -5 -5 -5 -5 -5 -5 -5 -5
-2 -2 -3 -3 -2 -3 -3 -3 -3 -3 -3 -3 -3 -3 -4 -4 -4 -4 -4 -4 -5 -5 -5 -5 -5 -5 -5 -5 -5 -5 -5 -5 -5 -5 -6 -6 -6 -6 -6 -5 -5 -5 -5 -6
-3 -3 -3 -3 -3 -3 -3 -3 -3 -3 -4 -4 -4 -4 -4 -4 -4 -4 -5 -5 -5 -5 -5 -5 -5 -5 -5 -5 -6 -6 -6 -6 -6 -6 -6 -6 -6 -6 -6 -6 -6 -6 -6 -6
-3 -3 -3 -4 -4 -4 -4 -4 -4 -4 -4 -4 -4 -4 -4 -4 -5 -5 -5 -5 -5 -5 -5 -5 -5 -5 -6 -6 -6 -6 -6 -6 -6 -6 -6 -6 -6 -7 -7 -6 -6 -6 -6 -6
-4 -4 -4 -4 -4 -4 -5 -5 -5 -4 -4 -5 -5 -5 -5 -5 -5 -5 -5 -5 -5 -5 -5 -6 -6 -6 -6 -6 -6 -6 -6 -6 -7 -7 -7 -7 -7 -7 -7 -7 -7 -7 -6 -6
-5 -5 -5 -5 -5 -5 -5 -5 -5 -5 -5 -5 -5 -5 -5 -5 -5 -5 -5 -6 -6 -6 -6 -6 -6 -6 -6 -6 -6 -6 -7 -7 -7 -7 -7 -7 -7 -7 -7 -7 -7 -7 -7 -7
-4 -5 -5 -5 -5 -5 -5 -5 -5 -5 -5 -5 -6 -6 -6 -6 -6 -6 -6 -6 -6 -6 -6 -6 -6 -7 -7 -7 -7 -7 -7 -7 -7 -7 -7 -7 -7 -7 -7 -7 -7 -7 -7 -7
-5 -5 -5 -5 -5 -5 -5 -5 -5 -6 -6 -6 -6 -6 -6 -6 -6 -6 -6 -6 -6 -6 -6 -7 -7 -7 -7 -7 -7 -7 -7 -7 -7 -7 -7 -7 -7 -7 -7 -7 -7 -7 -7 -7
-5 -5 -5 -5 -5 -5 -5 -6 -6 -6 -6 -6 -6 -6 -6 -6 -6 -6 -6 -7 -7 -7 -7 -7 -7 -7 -7 -7 -7 -7 -7 -7 -7 -7 -7 -7 -7 -7 -7 -7 -7 -7 -7 -7
-5 -5 -5 -6 -6 -6 -6 -6 -6 -6 -6 -6 -6 -6 -6 -6 -7 -7 -7 -7 -7 -7 -7 -7 -7 -7 -7 -7 -8 -8 -8 -8 -7 -7 -7 -7 -7 -7 -8 -7 -7 -7 -7 -7
-6 -6 -6 -6 -6 -6 -6 -6 -6 -6 -6 -6 -7 -7 -7 -7 -7 -7 -7 -7 -7 -7 -7 -7 -7 -7 -8 -8 -8 -8 -8 -8 -8 -8 -8 -8 -8 -8 -8 -8 -8 -8 -7 -7
-6 -6 -6 -6 -6 -6 -6 -6 -7 -7 -7 -7 -7 -7 -7 -7 -7 -7 -7 -7 -7 -8 -8 -7 -8 -8 -8 -8 -8 -8 -8 -8 -8 -8 -8 -8 -8 -8 -8 -8 -8 -8 -8 -8
-6 -6 -6 -6 -6 -6 -6 -7 -7 -7 -7 -7 -7 -7 -7 -7 -7 -7 -8 -8 -8 -8 -8 -8 -8 -8 -8 -8 -8 -8 -8 -8 -8 -8 -8 -8 -8 -8 -8 -8 -8 -8 -8 -8
-6 -6 -6 -7 -7 -7 -7 -7 -7 -7 -7 -7 -7 -7 -7 -7 -7 -7 -8 -8 -8 -8 -8 -8 -8 -8 -8 -8 -8 -8 -8 -8 -8 -8 -8 -8 -8 -8 -8 -8 -8 -8 -8 -8
-7 -7 -7 -7 -7 -7 -7 -7 -7 -7 -7 -7 -7 -7 -7 -7 -8 -8 -8 -8 -8 -8 -8 -8 -8 -8 -8 -8 -8 -8 -8 -8 -8 -8 -8 -8 -8 -8 -8 -8 -8 -8 -8 -8
-7 -7 -7 -7 -7 -7 -7 -7 -7 -7 -7 -7 -7 -7 -8 -8 -8 -8 -8 -8 -8 -8 -8 -8 -8 -8 -8 -8 -8 -8 -8 -9 -9 -9 -8 -8 -8 -8 -8 -8 -8 -8 -8 -8
Wind_Speed
4 4 3 6 8 8 9 9 9 9 9 10 7 6 5 3 2 1 1 1 2 1 1 2 2 3 3 3 3 3 3 3 4 4 3 3 3 3 3 3 3 3 3 4
3 4 4 7 9 10 10 8 9 8 11 8 5 2 3 3 3 3 3 3 3 2 2 2 2 3 3 4 4 3 3 4 4 4 3 3 3 3 3 3 3 3 4 4
3 3 3 7 8 9 6 6 8 11 10 3 3 4 6 5 4 5 5 4 4 3 3 3 3 3 3 4 4 4 4 4 4 4 4 4 4 3 3 3 3 3 4 4
1 1 6 7 2 5 6 6 8 6 5 5 6 5 5 5 5 5 4 4 3 3 4 3 3 3 3 3 3 4 4 5 5 4 5 4 4 4 4 3 3 4 4 5
3 3 7 6 3 3 4 6 5 7 7 5 3 2 3 4 4 4 4 4 4 4 3 3 3 3 3 4 4 4 4 5 5 5 5 5 4 4 4 3 3 4 4 5
3 4 6 6 2 1 2 4 4 4 5 4 1 2 5 2 2 3 3 2 2 2 2 3 3 3 3 4 4 4 5 5 5 5 4 4 4 4 4 3 4 4 5 5
5 5 7 5 2 2 3 5 2 3 4 3 5 6 4 2 2 2 2 2 2 2 2 3 3 2 3 4 5 5 5 5 5 4 4 4 4 3 3 4 4 4 5 5
5 5 8 3 3 5 5 2 1 1 2 3 4 3 3 2 2 1 1 2 1 2 3 3 3 2 3 5 5 5 4 4 4 4 4 3 3 3 3 3 4 4 4 5
7 7 3 3 5 3 2 2 2 2 3 3 3 3 2 2 2 2 2 2 2 2 3 4 3 3 4 5 5 4 4 4 4 4 4 4 3 3 3 3 3 4 4 4
4 6 5 4 3 2 2 3 3 3 3 3 3 4 3 2 2 2 2 2 2 2 3 4 4 4 4 5 4 4 4 4 4 4 4 3 3 3 3 3 4 4 4 4
5 6 4 4 4 4 3 3 3 3 3 4 4 4 3 3 3 3 3 2 2 2 3 5 5 4 4 4 3 3 4 4 4 4 4 3 4 4 4 4 5 5 4 4
6 5 4 5 3 3 3 3 4 3 2 2 3 4 3 3 3 3 3 2 2 3 4 4 4 5 5 4 3 3 4 4 3 3 3 3 3 4 6 6 8 8 7 6
5 4 4 4 3 3 3 3 3 3 4 3 2 3 3 2 2 2 3 3 3 4 4 4 4 4 5 4 3 3 4 4 3 3 3 3 3 4 5 6 7 7 7 7
3 2 4 4 4 3 2 2 2 2 2 2 2 2 2 2 2 3 3 4 3 3 4 4 4 5 5 4 3 4 4 5 4 3 3 3 3 4 4 4 5 5 5 6
4 4 5 3 2 2 1 1 1 1 1 1 1 2 2 2 3 4 4 3 2 3 3 3 4 5 4 4 3 4 4 3 3 3 3 3 3 4 4 4 4 4 4 5
4 3 3 3 4 3 2 2 3 3 2 2 2 2 3 3 3 3 3 2 2 3 4 4 4 5 4 4 4 4 3 5 4 3 3 3 3 3 3 3 4 4 4 4
3 3 3 4 4 4 4 4 4 4 3 3 3 3 2 1 2 2 3 3 2 3 4 3 4 5 4 3 3 3 3 4 4 3 2 3 3 3 3 3 4 4 4 4
5 5 5 5 5 4 4 4 4 4 3 3 2 2 2 2 3 4 3 3 3 3 4 3 3 4 3 3 3 3 3 3 3 2 2 2 3 3 3 3 3 4 3 4
3 3 3 4 4 4 3 3 3 3 3 2 2 2 3 3 3 3 2 2 2 3 4 4 5 4 3 4 4 2 3 3 3 2 2 3 3 2 2 3 3 3 3 3
2 2 2 2 1 2 2 2 2 2 2 2 2 2 2 3 2 2 2 2 3 4 4 4 3 3 3 4 4 2 2 2 2 3 2 2 2 3 3 3 3 3 3 3
2 1 1 1 1 1 1 2 2 2 2 2 3 3 3 3 2 1 1 3 4 3 3 4 3 3 3 3 3 2 2 2 2 2 2 3 3 3 3 3 3 3 3 3
2 1 1 1 1 1 2 1 2 2 1 1 2 2 2 2 2 2 3 3 3 4 3 2 2 4 3 3 2 2 2 2 2 2 2 2 2 3 3 3 3 3 3 3
2 2 1 1 1 1 2 1 1 1 2 2 2 2 2 2 2 2 3 3 3 4 3 2 4 5 4 2 2 2 2 2 3 2 2 2 2 2 3 3 3 3 3 3
1 1 1 1 0 0 1 2 1 1 1 2 2 2 2 1 2 2 2 4 4 4 2 4 5 4 3 2 2 2 2 2 3 3 3 3 3 2 3 3 3 3 3 3
1 1 0 0 1 1 2 1 1 1 1 1 2 2 2 2 2 2 2 2 3 3 2 3 4 4 3 2 2 2 2 3 3 3 2 3 3 3 3 3 3 3 3 3
1 1 1 2 2 2 1 1 1 1 1 1 2 2 1 1 1 1 1 2 2 2 2 2 3 3 2 2 2 3 3 3 4 3 3 3 3 3 3 3 3 3 3 3
1 1 1 1 1 1 1 1 1 1 1 2 2 2 1 1 1 1 1 1 2 2 2 2 2 2 2 2 2 3 3 3 3 3 3 3 3 3 3 4 3 3 3 3
Wind_Direction
251 266 235 239 240 222 216 211 215 238 241 253 248 243 239 225 216 213 261 264 250 260 289 309 325 329 326 322 322 323 323 314 305 303 302 302 297 290 286 288 287 279 272 267
279 271 257 265 254 234 232 227 232 250 262 261 261 246 239 225 223 237 252 257 261 272 287 293 298 305 313 314 316 319 314 308 308 309 310 308 302 295 292 290 289 285 277 270
257 299 324 269 240 216 214 211 202 228 243 261 261 243 234 228 229 234 244 251 259 266 264 269 273 283 292 301 308 310 306 306 306 303 304 301 300 297 286 284 287 287 285 281
208 49 243 249 242 205 218 239 219 225 243 239 238 248 241 220 215 234 245 250 260 265 272 278 281 287 291 298 299 298 300 301 302 300 296 296 294 290 285 284 285 284 285 283
170 223 272 282 254 188 200 260 231 223 244 257 269 291 271 219 203 219 234 244 250 251 261 277 282 282 290 297 296 294 292 292 292 292 289 291 290 288 290 291 290 286 284 279
175 201 241 250 242 196 135 273 244 209 236 246 194 248 259 232 239 262 267 258 265 274 275 273 280 283 285 290 293 290 289 288 286 284 284 282 281 284 291 290 285 284 284 281
205 227 259 256 248 129 182 251 252 215 230 217 214 227 251 265 274 269 273 281 282 284 274 272 280 281 278 282 281 287 295 297 296 292 286 282 285 285 289 291 292 290 289 291
184 213 250 223 147 187 224 267 253 245 237 231 238 259 266 252 251 261 291 300 295 290 290 290 282 273 278 280 287 297 302 302 302 299 294 297 296 299 294 289 289 292 295 297
197 218 247 202 207 224 198 225 248 243 245 225 237 256 267 257 257 261 261 270 278 275 294 300 291 273 273 287 301 304 305 304 302 302 302 300 293 294 298 291 285 287 287 289
246 264 262 254 247 252 228 234 246 240 232 210 227 248 257 254 261 270 275 273 280 287 296 299 300 293 282 292 301 300 298 302 305 304 304 303 299 292 289 287 283 281 281 285
247 265 282 268 235 236 237 238 245 248 227 215 211 230 229 239 254 261 276 279 274 269 279 291 300 302 303 302 301 299 297 299 301 301 295 296 296 286 282 273 271 275 273 273
234 232 221 257 252 219 227 243 239 232 246 240 213 216 225 242 250 256 264 273 278 278 283 293 300 302 304 303 300 298 302 302 297 296 292 291 295 301 294 288 293 290 282 277
240 246 232 255 259 232 226 240 242 226 222 237 236 216 218 241 252 259 269 266 265 271 280 288 295 298 302 301 301 295 292 295 293 289 286 289 292 294 299 305 305 302 299 296
256 255 261 249 241 241 232 241 239 239 237 225 224 218 215 242 258 263 267 269 275 282 288 287 291 294 300 300 299 296 293 290 288 276 274 279 285 286 288 296 305 305 306 308
261 246 239 246 243 245 235 214 231 270 261 260 234 226 226 240 260 272 278 284 289 293 293 293 296 300 306 303 298 296 295 288 283 276 275 276 281 285 288 292 297 303 307 308
270 272 249 237 240 243 234 221 231 248 250 246 249 253 252 252 267 281 287 279 282 291 295 296 296 301 308 309 307 303 295 293 297 287 280 282 283 286 290 294 300 303 306 308
234 258 252 249 246 244 233 231 230 238 241 242 247 254 261 276 291 295 295 288 278 283 285 283 293 305 310 306 304 303 298 293 299 296 283 280 278 281 283 288 295 299 301 308
226 240 240 234 233 238 242 239 234 234 237 237 241 240 243 247 260 274 285 296 307 307 296 288 296 308 308 305 306 306 301 298 302 297 293 287 286 284 282 285 292 299 309 315
256 256 255 244 233 224 228 234 237 236 238 226 224 240 251 252 255 267 279 286 290 298 300 306 313 321 308 304 312 307 311 308 306 304 297 295 302 296 289 291 295 297 301 308
292 286 275 272 255 219 225 236 232 240 242 220 217 236 259 266 262 268 270 266 264 271 284 297 305 307 305 304 314 309 310 312 305 302 301 300 297 297 295 293 293 294 294 295
293 297 296 288 298 282 243 222 210 231 250 226 216 232 250 265 264 255 259 285 289 292 296 302 316 304 301 307 312 312 311 313 310 306 298 293 295 295 297 295 290 289 290 290
279 275 279 279 283 306 303 257 215 223 239 245 242 234 239 261 274 280 264 258 280 304 315 295 297 305 322 326 323 320 318 314 311 308 304 303 301 299 299 299 292 290 291 292
272 263 266 267 259 280 316 308 251 227 234 242 244 241 242 253 252 257 285 285 291 302 313 291 303 318 334 348 335 321 314 310 307 306 305 305 303 300 300 302 300 296 297 297
268 265 273 279 128 110 315 305 301 277 258 265 260 250 243 265 279 262 264 290 305 311 309 303 318 331 347 354 325 313 306 302 301 302 304 304 302 300 298 298 298 299 296 293
257 247 231 165 201 244 257 278 314 313 310 306 295 282 265 246 247 272 288 291 302 322 322 315 325 335 342 321 311 306 302 297 298 302 300 302 300 299 298 299 298 297 294 292
242 243 245 238 235 239 241 228 234 269 276 301 311 307 304 296 274 277 288 298 305 323 331 322 320 324 322 314 311 308 305 308 314 311 301 296 293 293 294 295 292 289 288 287
274 264 269 292 283 251 232 223 228 254 253 248 280 291 295 299 301 304 308 320 323 323 322 321 321 318 315 315 313 310 309 307 305 304 301 295 291 286 287 287 288 289 288 286
Height
1489 1487 1487 1486 1485 1487 1488 1487 1489 1482 1480 1473 1472 1472 1471 1471 1471 1471 1471 1470 1470 1469 1469 1469 1468 1467 1466 1465 1464 1463 1461 1460 1459 1459 1458 1457 1456 1456 1455 1455 1454 1454 1454 1454
1490 1486 1485 1484 1480 1481 1482 1482 1482 1480 1476 1469 1469 1470 1470 1470 1470 1469 1469 1468 1468 1467 1467 1466 1465 1464 1463 1462 1461 1459 1458 1457 1456 1455 1455 1454 1453 1452 1452 1451 1451 1450 1450 1449
1491 1488 1485 1483 1476 1475 1475 1475 1475 1475 1470 1468 1468 1468 1467 1467 1467 1467 1466 1466 1465 1464 1464 1463 1462 1461 1460 1458 1457 1456 1455 1454 1453 1452 1451 1451 1450 1449 1448 1448 1447 1447 1446 1445
1493 1491 1489 1473 1470 1469 1470 1469 1469 1467 1466 1465 1465 1464 1464 1464 1464 1464 1464 1463 1462 1462 1461 1460 1459 1458 1457 1456 1454 1453 1452 1451 1450 1449 1448 1447 1446 1446 1445 1444 1444 1443 1442 1441
1493 1491 1482 1472 1468 1468 1469 1467 1464 1464 1463 1463 1463 1462 1461 1461 1461 1461 1461 1460 1459 1459 1458 1457 1456 1455 1454 1452 1451 1450 1448 1447 1447 1446 1445 1444 1443 1442 1441 1441 1440 1439 1438 1437
1490 1487 1482 1468 1465 1464 1467 1467 1461 1460 1460 1460 1461 1464 1460 1458 1458 1458 1458 1457 1456 1455 1455 1454 1453 1452 1450 1449 1447 1446 1445 1444 1443 1442 1441 1441 1440 1439 1438 1437 1436 1435 1434 1433
1486 1484 1474 1466 1464 1465 1470 1464 1459 1458 1458 1458 1458 1458 1457 1456 1455 1455 1454 1454 1453 1452 1451 1450 1450 1448 1447 1445 1444 1443 1442 1441 1440 1439 1438 1437 1436 1435 1434 1433 1432 1431 1430 1429
1482 1481 1473 1462 1462 1464 1461 1458 1457 1456 1456 1456 1455 1454 1453 1453 1452 1452 1451 1450 1450 1449 1448 1447 1446 1445 1443 1442 1441 1440 1439 1438 1436 1435 1434 1433 1432 1431 1430 1429 1428 1427 1425 1424
1470 1467 1460 1458 1458 1457 1457 1456 1456 1455 1455 1454 1453 1452 1451 1450 1450 1449 1448 1448 1447 1446 1445 1444 1443 1442 1440 1439 1438 1437 1435 1434 1433 1432 1431 1430 1429 1428 1427 1425 1424 1423 1422 1420
1466 1460 1457 1456 1455 1455 1455 1454 1454 1453 1453 1452 1451 1450 1449 1448 1447 1447 1446 1445 1444 1443 1442 1441 1440 1439 1438 1436 1435 1434 1432 1431 1430 1429 1427 1426 1425 1424 1423 1421 1420 1419 1418 1416
1462 1457 1455 1453 1453 1453 1452 1452 1451 1450 1450 1449 1448 1447 1447 1446 1446 1445 1443 1443 1442 1441 1439 1438 1437 1436 1435 1433 1432 1430 1429 1428 1426 1426 1424 1423 1422 1420 1419 1418 1417 1416 1414 1413
1456 1452 1453 1451 1450 1450 1450 1449 1448 1448 1447 1447 1446 1445 1445 1444 1443 1442 1441 1440 1439 1438 1437 1436 1434 1433 1432 1430 1429 1427 1425 1424 1423 1422 1421 1420 1418 1417 1415 1415 1413 1412 1411 1409
1449 1449 1449 1448 1448 1448 1447 1446 1446 1445 1444 1444 1444 1443 1442 1442 1441 1440 1439 1438 1437 1435 1434 1433 1431 1430 1429 1427 1426 1424 1423 1421 1420 1418 1417 1416 1415 1413 1412 1411 1409 1408 1407 1405
1447 1447 1446 1445 1445 1445 1444 1444 1443 1442 1442 1442 1441 1441 1440 1439 1438 1437 1436 1435 1434 1433 1432 1430 1429 1427 1426 1424 1422 1421 1419 1418 1416 1415 1414 1413 1411 1410 1408 1407 1405 1403 1403 1402
1444 1444 1443 1442 1442 1442 1441 1441 1440 1439 1439 1439 1438 1438 1437 1436 1435 1434 1434 1433 1431 1430 1429 1427 1426 1424 1423 1421 1419 1417 1416 1414 1413 1412 1410 1409 1408 1407 1405 1404 1402 1400 1399 1398
1440 1440 1439 1439 1438 1438 1438 1438 1437 1436 1436 1436 1435 1435 1434 1434 1433 1432 1431 1430 1429 1427 1426 1424 1423 1421 1420 1418 1416 1414 1412 1411 1410 1409 1407 1406 1405 1404 1402 1401 1399 1397 1396 1395
1437 1436 1436 1435 1435 1435 1435 1435 1434 1434 1433 1433 1433 1432 1432 1431 1430 1429 1428 1427 1426 1425 1423 1422 1420 1419 1417 1415 1414 1412 1410 1408 1407 1406 1405 1403 1402 1401 1400 1398 1397 1395 1394 1393
1435 1434 1433 1433 1432 1432 1432 1432 1431 1431 1430 1430 1430 1429 1429 1428 1427 1426 1425 1425 1423 1422 1421 1419 1418 1416 1415 1413 1411 1409 1408 1406 1405 1403 1402 1401 1400 1399 1397 1396 1395 1393 1392 1391
1431 1431 1430 1430 1429 1429 1429 1429 1428 1428 1428 1427 1427 1427 1426 1426 1425 1424 1423 1422 1421 1419 1418 1417 1416 1414 1413 1411 1409 1408 1406 1404 1403 1401 1400 1399 1398 1396 1395 1394 1392 1391 1390 1388
1429 1428 1428 1427 1427 1427 1427 1426 1426 1425 1425 1425 1424 1424 1423 1423 1422 1421 1420 1420 1419 1417 1416 1415 1413 1412 1410 1409 1407 1406 1404 1402 1401 1399 1398 1397 1395 1394 1393 1392 1390 1389 1388 1387
1427 1426 1426 1425 1425 1425 1425 1424 1424 1423 1423 1422 1422 1421 1421 1421 1420 1419 1418 1417 1417 1415 1414 1413 1411 1410 1408 1407 1406 1404 1402 1400 1399 1397 1396 1395 1393 1392 1391 1390 1388 1387 1386 1385
1426 1425 1425 1424 1424 1423 1423 1423 1422 1421 1421 1420 1420 1420 1419 1418 1418 1417 1416 1416 1414 1413 1412 1411 1410 1408 1407 1405 1404 1402 1401 1399 1397 1396 1394 1393 1392 1390 1389 1388 1386 1385 1384 1383
1425 1424 1423 1423 1423 1422 1422 1421 1421 1420 1419 1419 1418 1418 1417 1417 1416 1415 1414 1413 1412 1411 1410 1409 1408 1407 1405 1404 1402 1401 1399 1397 1396 1394 1393 1392 1390 1389 1387 1386 1384 1383 1382 1381
1423 1423 1422 1422 1421 1421 1420 1420 1419 1419 1418 1418 1417 1417 1416 1415 1414 1413 1412 1411 1411 1410 1408 1407 1406 1405 1403 1402 1400 1399 1397 1396 1395 1393 1392 1390 1389 1387 1385 1384 1383 1381 1380 1379
1422 1421 1421 1420 1420 1419 1419 1419 1418 1418 1417 1417 1416 1415 1415 1414 1413 1412 1411 1410 1409 1408 1407 1406 1405 1403 1402 1400 1399 1397 1396 1394 1393 1392 1390 1389 1387 1385 1384 1382 1381 1380 1378 1377
1420 1420 1420 1419 1419 1418 1418 1417 1417 1416 1416 1415 1415 1414 1413 1412 1411 1410 1409 1408 1408 1407 1405 1404 1403 1402 1400 1399 1397 1396 1394 1393 1391 1390 1389 1387 1385 1384 1382 1381 1380 1378 1377 1376
1419 1418 1418 1417 1417 1417 1416 1416 1415 1415 1414 1414 1413 1413 1412 1411 1410 1409 1408 1407 1406 1405 1404 1403 1401 1400 1399 1397 1396 1395 1393 1392 1390 1389 1387 1386 1384 1383 1381 1380 1378 1377 1376 1374